Regional Weather Roundup
Issued by NWS

Home | Current Version | Previous Version | Text Only | Print | Product List | Glossary On
Versions: 1 2 3 4 5 6 7 8 9 10 11 12 13 14 15 16 17 18 19 20 21 22 23 24 25 26 27 28 29 30 31 32 33 34 35 36 37 38 39 40 41 42 43 44 45 46 47 48 49 50
688
ASUS43 KTOP 212008
RWRKS

WEATHER ROUNDUP FOR KANSAS
NATIONAL WEATHER SERVICE GOODLAND KS
300 PM CDT THU SEP 21 2017

NOTE:  "FAIR" INDICATES FEW OR NO CLOUDS BELOW 12,000 FEET WITH NO
SIGNIFICANT WEATHER AND/OR OBSTRUCTIONS TO VISIBILITY.

KSZ001>006-013>018-027>032-041>047-212100-
NORTHWEST KANSAS

CITY           SKY/WX    TMP DP  RH WIND       PRES   REMARKS
GOODLAND       SUNNY     94  33  11 S23G30    29.70F
HAYS           SUNNY     99  51  19 S25G33    29.70F HX  96
HILL CITY      SUNNY    101  44  14 S21G29    29.69F HX  97
RUSSELL        SUNNY     98  59  27 SE22G35   29.71F HX  98
$$

KSZ061>065-074>080-084>089-212100-
SOUTHWEST KANSAS

CITY           SKY/WX    TMP DP  RH WIND       PRES   REMARKS
DODGE CITY     SUNNY     99  40  13 S29G36    29.76F
ELKHART          N/A     92  43  18 S20         N/A
GARDEN CITY    SUNNY     95  45  17 S25G35    29.76F
GREAT BEND     SUNNY     98  63  31 S25G32    29.73F HX 100
LIBERAL        SUNNY     96  44  16 S31G40    29.78F
PRATT          SUNNY     94  63  34 S17G25    29.78F HX  95
$$

KSZ066>073-081>083-090>101-212100-
SOUTHEAST KANSAS

CITY           SKY/WX    TMP DP  RH WIND       PRES   REMARKS
CHANUTE        MOSUNNY   90  75  61 S21G30    29.88F HX 100
COFFEYVILLE    SUNNY     92  74  55 S14G22    29.87F HX 101
HUTCHINSON     SUNNY     98  70  40 S24G33    29.77F HX 105
MEDICINE LODGE   N/A     97  65  34 S14G28    29.76F HX  99
NEWTON         SUNNY     94  72  48 S24G31    29.81F HX 102
WICHITA INTL   SUNNY     96  71  44 S24G35    29.79F HX 103
WICHITA JABRA  SUNNY     93  72  50 S20G30    29.81F HX 101
WICHITA MCCONL MOSUNNY   93  68  43 S14G20    29.84F HX  97
WINFIELD       SUNNY     94  74  52 S20G28    29.84  HX 104
$$

KSZ007>012-019>026-033>040-048>060-102>105-212100-
NORTHEAST KANSAS

CITY           SKY/WX    TMP DP  RH WIND       PRES   REMARKS
CONCORDIA      SUNNY     92  71  50 S18G28    29.75F HX  98
EMPORIA        SUNNY     91  73  55 S24G30    29.82F HX  99
LAWRENCE       MOSUNNY   92  75  57 SE22G31   29.84F HX 103
MANHATTAN      MOSUNNY   96  72  45 SE18G28   29.77F HX 104
MARYSVILLE     MOSUNNY   91  72  52 S21G30    29.77F HX  98
OLATHE IND     MOSUNNY   90  74  59 SE17G29   29.88F HX  99
OLATHE EXE     MOSUNNY   89  74  60 S23G31    29.88F HX  98
SALINA         SUNNY     99  67  35 S24G32    29.75F HX 103
TOPEKA BILLARD MOSUNNY   91  76  61 SE20G28   29.83F HX 103
TOPEKA FORBES  MOSUNNY   92  75  57 S20G30    29.83F HX 103
$$




USA.gov is the U.S. government's official web portal to all federal, state and local government web resources and services.